Tracking 27112 objects as of 28-Mar-2023
HD Live streaming from Space Station
objects crossing your sky now

AEROCUBE 2

Track AEROCUBE 2 now!
10-day predictions
AEROCUBE 2 is classified as:


NORAD ID: 31133
Int'l Code: 2007-012R
Perigee: 642.0 km
Apogee: 755.2 km
Inclination: 98.3 °
Period: 98.6 minutes
Semi major axis: 7069 km
RCS: 0.0127 m2 (small)
Launch date: April 17, 2007
Source: United States (US)
Launch site: TYURATAM MISSILE AND SPACE COMPLEX (TTMTR)

Uplink (MHz):
Downlink (MHz): 902-928
Beacon (MHz):
Mode: 9600bps GFSK
Call sign:
Status: Inactive

Your satellite tracking list
Your tracking list is empty




NASA's NSSDC Master Catalog

Two Line Element Set (TLE):
1 31133U 07012R   23086.43166324  .00003173  00000-0  63473-3 0  9999
2 31133  98.2888  37.9099 0080044  42.4403 318.2950 14.60532510848078
Source of the keplerian elements: AFSPC